Theta_e
297 297 298 297 298 298 298 298 298 299 300 302 302 301 305 309 311 311 308 306 308 310 310 311 311 311 312 309 307 306 307 308 308 309 310 309 309 312 311 312 313 311 311 312 314 319 321 321 325 325 323 322 321 321 323 324 329 332 327 323 324 329 331 326 319 320 324 323 320 320 321 325 331 329 324 328 330 328 330 333 333 330 325 328 335 332 327
297 297 297 297 298 298 298 298 298 299 300 301 301 302 305 307 309 310 308 306 309 311 311 312 312 312 313 311 309 308 309 309 310 310 310 310 311 314 311 311 312 311 312 315 315 317 321 321 321 324 325 323 321 321 324 326 327 328 327 324 321 322 324 324 323 322 324 325 322 322 324 328 330 326 322 323 326 329 327 326 334 333 322 326 336 333 327
296 297 297 297 298 298 298 298 299 300 300 301 301 302 304 307 308 310 310 309 310 312 315 316 317 316 317 317 315 313 312 311 310 310 310 309 311 314 311 310 312 312 314 317 315 318 323 321 319 324 326 323 320 321 323 326 327 328 329 329 328 326 325 329 331 325 324 327 328 327 327 328 327 323 321 322 325 328 323 323 338 337 322 324 333 329 323
297 297 297 297 298 298 298 298 299 300 300 301 301 302 305 309 309 309 312 312 311 314 316 315 317 319 318 317 317 315 315 313 309 309 310 309 311 312 310 311 314 314 316 318 318 318 320 319 320 324 325 322 319 319 323 325 327 328 329 331 335 332 324 325 329 327 326 330 329 324 324 328 328 322 320 322 321 322 327 333 340 334 326 327 328 324 322
297 297 297 297 298 298 298 298 299 300 300 301 301 302 305 309 311 311 313 314 313 315 317 315 317 318 316 316 316 314 316 314 310 310 309 309 312 313 310 311 314 313 316 320 320 319 320 321 321 322 322 321 319 319 321 323 325 327 325 328 336 335 326 322 322 322 322 323 321 319 319 322 322 319 319 319 318 323 333 335 328 324 329 332 325 321 322
297 297 297 297 298 298 298 298 299 300 301 301 301 303 307 309 311 313 314 314 314 314 315 316 317 316 315 316 316 314 315 314 310 310 311 311 314 316 313 312 314 315 318 322 320 320 323 322 320 321 322 322 324 323 318 318 323 327 326 326 332 333 326 321 319 319 318 317 317 317 317 317 317 317 319 318 318 324 328 325 320 321 329 330 323 319 317
297 297 297 297 298 298 298 299 299 300 301 301 301 305 309 309 310 313 313 313 314 315 315 315 316 316 316 318 318 314 315 313 309 311 315 314 312 316 316 313 313 315 318 323 323 320 324 323 318 319 320 321 325 325 319 316 321 328 329 326 327 328 323 319 318 318 316 316 316 316 315 317 316 316 316 316 317 319 319 318 317 318 321 322 318 315 313
296 296 297 297 298 298 298 299 299 300 301 302 302 305 308 309 312 313 312 312 314 316 315 315 317 318 316 318 318 316 315 313 310 309 313 313 310 313 315 311 310 312 314 319 319 317 323 324 317 318 322 320 322 323 320 316 319 326 328 323 322 324 323 319 319 319 317 314 314 315 315 316 315 315 315 315 316 316 315 316 316 316 316 315 313 313 311
296 296 297 297 298 298 298 299 299 300 301 302 304 305 306 309 311 311 313 315 316 316 315 315 317 316 314 314 314 315 314 311 310 308 308 312 313 312 313 312 311 311 311 313 313 313 317 319 315 318 321 318 317 318 316 315 319 324 324 321 324 327 324 321 320 321 318 315 314 314 315 316 316 315 314 314 315 315 314 314 315 315 315 314 315 315 311
296 296 297 297 298 298 298 299 299 300 301 302 304 305 305 307 309 310 313 316 316 316 315 313 313 316 317 314 311 312 312 312 315 313 308 309 311 310 312 313 313 314 313 311 311 312 314 314 312 313 314 313 314 314 314 316 321 324 323 322 325 326 323 321 322 322 319 317 316 316 319 323 321 315 314 314 313 313 313 313 312 313 314 316 317 314 309
296 296 297 297 297 298 298 299 299 300 301 301 301 302 303 305 307 308 311 316 317 314 311 310 313 315 314 311 308 310 312 313 318 318 310 309 310 309 312 315 315 314 312 310 311 312 312 310 310 310 311 312 313 313 315 317 318 322 327 326 324 323 322 322 323 323 321 317 316 320 324 326 319 313 312 313 312 312 313 312 310 310 311 312 311 309 307
296 296 297 297 297 298 298 299 299 300 300 300 300 301 302 303 305 307 311 316 319 315 310 311 314 312 308 308 308 311 312 311 314 316 312 309 310 310 312 317 318 313 309 309 312 311 309 309 311 311 312 314 313 312 314 316 316 317 323 327 325 322 323 323 320 321 321 317 318 323 324 319 313 310 310 311 310 309 310 310 309 308 307 307 307 307 305
296 296 297 297 297 298 298 299 299 299 300 300 300 300 301 301 304 307 309 314 317 316 313 310 310 308 308 308 308 308 309 311 314 316 313 311 311 310 312 315 316 311 309 312 317 316 313 314 314 312 314 319 319 316 315 315 316 317 320 324 326 323 321 321 319 318 319 319 319 322 319 313 311 311 310 310 311 311 311 311 309 308 307 306 307 306 304
296 296 297 297 297 298 298 299 299 299 300 300 299 300 301 301 303 306 307 310 314 315 314 311 309 308 308 310 311 309 309 312 314 312 310 311 311 309 310 310 308 309 313 318 322 320 317 318 318 314 315 320 321 318 316 315 315 317 318 319 321 322 321 320 319 317 317 317 316 316 315 313 312 312 312 312 312 312 312 311 310 309 308 306 305 305 303
296 296 297 297 297 298 298 299 299 300 300 300 300 300 301 300 302 304 305 307 313 317 313 308 308 309 308 311 314 312 311 314 314 311 312 315 311 307 308 307 303 308 317 321 322 321 318 319 319 315 315 318 317 315 316 316 315 316 315 312 314 319 321 321 320 317 314 315 315 314 316 316 313 312 311 310 311 312 311 310 310 309 308 306 305 304 303
296 296 297 297 297 298 298 299 299 299 299 300 301 301 301 302 301 302 303 305 310 313 309 305 306 309 309 309 310 311 313 315 315 315 315 314 309 305 307 309 306 311 322 324 322 323 322 319 319 318 316 316 315 313 315 317 317 316 315 313 312 314 317 319 320 317 314 316 316 316 316 314 312 311 309 309 312 313 312 312 312 309 308 307 305 304 304
296 296 297 297 298 298 298 298 298 299 299 300 301 301 302 303 301 301 304 305 306 307 306 305 308 313 313 310 310 310 311 312 314 316 312 309 309 307 308 313 312 312 320 323 321 323 322 317 317 319 316 312 313 313 313 317 321 320 319 319 317 317 317 317 318 316 315 316 315 314 313 312 310 309 308 309 311 312 313 316 314 308 306 307 306 306 305
296 296 297 297 297 297 297 297 298 299 299 300 301 301 302 304 303 302 304 306 308 308 305 303 308 313 311 310 311 309 309 312 315 316 313 312 312 309 309 313 311 308 314 321 321 322 321 316 315 319 316 311 313 314 314 316 319 316 315 317 318 317 315 315 315 314 313 313 311 310 311 310 308 308 308 309 310 312 315 316 310 305 304 304 304 305 305
296 296 297 297 297 296 297 297 298 299 299 300 301 303 304 304 304 304 306 309 311 309 303 302 307 309 306 308 312 309 309 314 316 318 319 315 311 310 309 310 311 310 314 321 320 317 318 315 313 316 318 314 313 314 313 314 314 312 313 316 317 316 314 314 314 313 311 310 310 311 311 309 307 307 307 308 312 314 313 309 305 303 303 302 302 302 303
296 297 296 296 296 296 297 298 298 299 299 301 302 304 305 305 305 306 307 310 312 310 304 303 305 305 304 310 315 313 313 315 316 320 323 316 311 313 312 311 313 314 316 321 318 312 315 317 312 313 317 315 313 313 312 310 309 309 311 313 312 312 313 313 312 310 310 310 311 313 313 308 305 307 308 308 311 310 306 303 302 302 301 301 301 301 301
297 296 296 295 295 296 297 298 299 299 300 302 303 304 306 306 307 306 306 307 311 311 306 303 302 303 305 308 311 313 315 316 316 318 320 314 310 314 317 317 319 317 315 319 317 310 313 318 313 311 314 312 312 313 312 311 310 307 307 309 309 309 311 311 309 307 307 309 310 311 309 306 305 308 308 306 306 304 302 302 302 302 301 301 301 300 300
296 296 295 295 296 297 297 298 299 300 302 304 304 305 307 307 307 308 306 306 308 306 304 303 302 303 306 306 306 308 310 312 312 313 315 314 312 314 318 321 320 316 314 318 317 312 312 315 313 312 313 312 312 311 310 313 313 308 307 309 309 308 308 308 307 306 305 307 307 306 305 304 304 305 304 303 303 302 301 301 301 301 300 300 300 300 300
296 295 295 295 296 297 297 299 300 302 303 306 306 306 307 307 306 306 305 304 304 302 300 302 304 305 306 307 307 307 308 310 309 308 312 317 314 312 315 318 316 313 314 319 321 319 317 314 313 314 313 311 311 311 309 311 312 308 307 308 307 306 306 307 307 306 305 305 305 304 304 303 303 303 303 302 302 301 300 300 300 300 301 300 300 300 301
296 295 295 295 296 297 298 299 301 304 305 307 307 307 307 307 306 305 303 304 309 310 304 305 309 308 304 305 307 306 307 309 309 309 310 313 314 312 313 314 313 314 315 314 312 314 316 311 309 312 311 307 309 312 310 309 308 307 307 308 307 306 307 307 307 306 306 306 304 304 303 303 302 302 302 301 301 301 300 300 300 300 300 300 300 300 300
296 295 295 295 296 297 299 300 302 305 306 306 306 306 307 307 306 306 303 302 311 318 313 307 308 306 303 304 305 305 306 307 309 310 309 309 314 316 312 309 309 312 315 310 307 311 315 310 308 311 310 306 308 311 308 307 308 308 309 309 309 307 306 306 305 305 305 305 304 303 302 301 301 301 301 301 301 300 300 300 300 299 299 299 298 298 299
296 294 294 295 296 298 300 301 303 305 306 305 304 304 306 306 305 306 304 303 308 315 313 308 307 305 303 305 304 304 306 308 309 311 310 309 311 311 308 306 306 306 309 309 309 313 314 310 309 311 309 306 309 310 306 306 308 309 308 307 307 307 306 305 304 303 304 303 303 302 301 301 301 301 301 301 301 300 300 301 300 300 301 300 299 298 299
295 294 294 296 297 298 300 301 303 305 304 303 302 302 304 306 305 305 307 307 309 311 310 308 308 306 303 303 304 304 306 308 308 309 308 307 307 305 304 305 307 306 308 311 312 312 312 310 309 308 307 307 309 309 306 306 307 308 307 305 305 306 305 303 303 303 304 303 302 302 302 301 301 301 301 301 301 300 301 301 301 302 301 301 301 300 298
295 294 294 296 297 299 300 301 302 304 304 303 303 302 302 304 306 306 307 306 308 312 312 309 306 305 304 304 303 303 305 307 307 306 304 304 305 304 303 305 308 309 310 313 312 310 309 309 307 307 307 308 308 308 308 308 308 308 306 304 305 305 304 304 304 304 304 303 302 301 302 301 301 301 301 301 300 300 300 301 301 301 299 298 300 301 300
294 294 295 296 297 299 301 301 302 304 306 305 304 304 304 304 305 307 307 304 306 313 318 314 307 305 305 305 303 303 303 305 305 304 303 302 302 302 301 303 308 310 310 311 311 310 308 307 308 307 305 305 307 309 309 309 308 306 305 304 305 305 305 305 305 303 302 302 302 301 301 301 301 302 302 300 299 300 301 301 300 299 298 297 297 299 300
294 294 294 296 298 299 301 302 301 303 306 305 305 310 314 309 304 306 308 305 303 310 317 316 309 306 305 303 304 304 303 303 304 303 302 302 302 300 301 304 307 310 311 310 309 308 307 309 311 308 303 305 311 310 307 307 307 305 303 305 305 305 305 305 304 302 302 302 302 301 301 301 301 300 300 299 299 299 300 300 299 298 298 298 298 298 299
294 294 294 296 298 299 301 301 302 304 306 305 306 313 316 310 304 305 307 305 302 309 316 315 310 309 309 305 303 304 302 302 303 302 300 302 302 300 301 303 304 305 309 311 310 309 308 308 309 307 304 307 313 311 306 307 307 304 303 304 304 304 305 305 304 303 302 302 302 302 302 301 301 300 300 300 299 299 299 299 299 299 299 299 299 299 299
293 294 295 296 298 300 300 301 303 305 305 305 306 308 307 305 304 306 307 305 302 309 318 316 308 307 310 307 304 305 303 302 304 305 303 303 305 304 302 303 304 305 309 313 312 309 307 306 307 306 304 306 311 311 307 306 307 304 303 304 305 304 305 304 303 303 302 302 302 302 302 302 302 302 301 300 299 299 299 299 299 300 300 299 299 299 299
294 294 295 296 298 300 300 302 305 306 304 303 304 302 301 303 305 305 306 306 303 304 310 313 308 304 306 306 304 304 304 305 308 311 307 302 304 306 306 307 309 309 308 309 308 305 305 307 308 306 304 306 309 309 307 305 305 304 303 304 304 304 304 303 302 303 303 302 301 302 303 303 301 300 300 299 298 299 299 299 299 299 299 299 299 299 298
294 294 295 296 299 300 302 304 307 307 305 303 301 301 301 301 303 305 305 304 303 302 304 309 311 307 306 307 307 304 305 308 311 312 309 302 300 305 310 313 313 309 304 304 307 305 304 306 308 307 306 308 308 306 304 303 303 303 303 303 303 303 303 303 303 303 304 302 301 301 301 300 299 299 300 300 299 299 298 299 299 300 300 300 298 297 298
294 295 296 297 299 302 304 306 306 306 306 303 300 301 301 300 302 307 305 303 305 308 306 309 313 311 308 308 307 304 305 309 308 308 309 305 300 304 314 315 310 306 304 307 310 308 304 305 307 306 305 307 306 305 303 303 302 303 303 302 302 302 303 303 303 303 303 302 302 300 298 298 300 302 302 302 300 298 297 298 298 299 302 304 300 297 297
296 296 297 298 301 303 305 306 304 304 305 303 300 301 302 301 303 306 305 304 307 309 307 308 312 313 310 308 306 303 304 307 306 306 311 311 304 306 317 317 307 303 307 311 312 309 304 304 307 307 305 306 306 304 303 303 302 303 303 302 302 303 303 303 303 302 301 302 303 302 300 300 302 302 302 301 299 297 297 298 299 299 302 305 301 297 296
299 300 300 302 304 306 306 304 303 302 302 302 302 302 302 303 304 305 306 306 305 306 310 312 312 311 310 309 307 305 305 306 306 306 310 311 305 307 316 316 307 307 312 312 308 306 305 306 309 309 305 304 304 303 303 303 302 302 303 302 302 304 304 302 302 301 301 301 302 301 300 301 301 301 301 301 300 298 299 300 300 299 301 302 299 296 297
304 305 304 304 307 310 308 304 302 302 302 302 305 304 303 304 307 308 309 308 304 305 312 314 309 308 310 310 307 305 304 306 309 308 307 306 304 305 311 310 306 309 311 305 301 305 308 309 309 307 303 301 302 301 301 303 302 302 304 304 303 303 303 301 300 301 302 301 300 300 300 301 300 300 301 301 300 299 299 299 298 297 298 299 298 297 298
306 305 304 305 307 308 306 302 300 302 303 303 305 305 304 305 307 307 307 308 307 306 308 310 309 311 315 312 306 303 304 308 311 310 307 305 305 306 308 307 307 309 309 303 302 307 309 306 306 306 304 302 302 301 301 302 302 302 303 301 299 299 299 298 299 301 302 301 300 299 299 300 300 300 301 301 300 298 297 297 297 297 298 298 298 298 298
303 303 304 306 305 303 302 301 301 304 306 306 305 306 306 305 306 306 306 307 307 306 306 307 308 309 311 311 308 304 303 306 311 312 307 305 306 308 307 305 306 308 306 302 304 309 309 306 305 305 304 303 302 301 300 301 302 302 300 297 295 296 297 297 298 299 299 298 297 296 297 297 298 298 299 300 300 300 298 297 297 298 299 298 298 298 298
299 300 302 304 303 300 301 302 302 303 306 306 305 305 305 304 304 306 306 306 306 306 307 308 307 306 308 313 315 310 303 302 308 314 310 304 306 309 306 302 304 307 304 301 305 310 310 306 304 304 307 308 305 301 299 300 302 302 298 294 294 296 297 296 297 298 297 296 295 296 297 297 296 297 297 297 298 299 298 297 298 299 299 299 299 299 299
298 300 301 301 301 300 301 302 302 301 303 304 304 304 304 304 303 304 306 307 307 307 308 309 308 307 307 309 310 309 303 300 305 314 312 304 304 309 307 303 304 306 303 302 306 309 308 305 304 305 308 307 303 300 300 300 302 302 298 294 294 295 296 295 296 296 297 297 296 295 296 297 297 297 298 298 298 298 298 298 298 299 299 299 299 299 299
301 301 301 301 300 300 300 301 301 300 302 305 305 303 303 304 303 303 304 306 307 307 305 304 305 304 304 304 305 306 302 300 304 312 312 304 303 307 307 305 304 303 302 303 306 307 307 306 306 306 306 304 301 301 300 300 301 301 298 294 294 296 296 296 296 296 297 298 298 297 297 298 298 299 299 299 299 299 299 299 299 299 299 300 300 299 299
302 302 304 304 302 300 300 301 300 300 301 303 304 303 303 303 303 305 307 307 307 306 306 307 308 306 304 306 307 304 301 301 305 308 306 304 304 306 305 304 303 302 302 303 305 305 306 307 306 305 303 302 301 301 300 300 302 302 299 295 294 295 295 295 295 295 296 297 297 297 298 298 298 298 299 299 299 299 298 299 299 299 299 299 299 299 299
302 303 306 306 302 300 301 302 301 301 301 302 305 308 309 308 309 312 313 312 309 306 306 310 313 309 305 304 306 305 306 309 309 305 303 305 305 303 302 303 304 303 303 303 304 304 305 306 305 302 301 301 301 301 300 300 300 299 299 297 295 294 294 294 294 295 295 296 296 297 298 298 298 298 298 299 299 299 299 299 299 299 299 299 299 299 299
304 303 304 304 302 301 301 300 301 302 303 304 307 310 312 312 312 312 311 310 311 308 306 308 312 309 305 303 304 305 310 313 308 303 305 308 305 301 301 302 303 303 303 302 302 306 310 309 304 300 300 301 301 299 299 299 297 296 298 299 296 293 293 294 295 294 295 296 296 297 297 297 298 298 298 299 299 299 299 299 298 299 299 299 299 299 299
302 301 301 302 303 301 299 301 305 308 308 308 310 312 311 309 308 306 305 306 309 309 305 306 308 306 304 304 303 304 308 311 306 301 304 307 304 301 303 304 303 303 303 301 303 311 315 311 303 300 299 300 300 298 298 299 298 298 299 300 296 293 293 294 294 295 295 296 297 297 297 297 298 298 298 298 299 299 299 298 298 299 299 299 299 299 299
304 301 299 302 303 301 302 305 307 306 306 307 308 309 306 303 303 305 305 305 307 308 306 306 308 305 304 307 309 306 305 307 305 302 303 305 303 302 304 304 303 304 305 306 311 319 318 309 301 299 299 299 298 298 298 299 300 301 302 301 297 294 294 294 294 295 296 297 297 297 297 297 298 298 298 298 298 298 298 298 299 299 299 299 299 299 299
303 301 299 300 301 303 306 306 302 301 305 305 303 303 303 302 304 309 308 304 304 306 306 309 313 310 304 306 310 307 303 304 305 303 303 305 304 303 303 304 302 303 306 312 319 322 315 304 299 299 299 298 298 299 299 299 298 298 298 298 296 294 295 295 296 296 297 297 298 298 297 298 298 298 298 298 298 298 298 299 299 299 299 299 299 299 299
300 299 300 301 302 304 306 303 299 302 310 310 305 303 304 305 306 308 305 302 305 308 307 309 313 312 306 305 307 305 303 304 305 303 303 306 305 302 302 304 306 307 310 315 318 315 306 299 298 299 299 298 299 300 299 298 296 294 295 296 296 296 296 297 297 297 298 298 298 298 298 298 298 298 298 298 299 299 299 299 299 299 299 299 299 299 299
298 299 303 305 305 306 305 301 299 303 307 307 307 307 308 308 309 306 300 300 306 310 308 307 310 309 306 306 305 303 302 304 303 302 303 306 304 302 303 308 312 315 316 313 309 304 300 298 298 299 298 298 299 299 298 296 295 295 295 296 296 296 297 298 298 298 298 298 298 298 298 298 299 299 299 299 299 299 299 299 299 299 299 299 299 299 299
299 301 304 305 305 305 302 301 303 305 304 304 306 307 307 309 310 304 300 303 309 309 307 309 311 308 305 305 305 303 302 304 303 302 304 305 304 305 311 316 317 316 315 311 304 299 298 298 299 299 298 298 298 297 296 295 295 295 296 296 296 296 297 298 298 298 298 298 298 299 299 299 299 299 299 298 298 298 298 298 298 299 299 299 299 299 299
Wind_Speed
9 9 11 13 12 11 12 12 11 12 13 13 10 6 4 1 1 1 13 24 14 3 2 1 1 2 2 4 5 5 5 4 5 6 4 2 2 3 2 1 3 3 3 4 4 4 4 4 3 4 2 3 2 5 5 1 3 4 3 1 1 3 4 4 1 3 3 3 4 4 7 8 7 5 3 3 1 2 5 5 3 3 2 2 4 2 2
8 9 11 12 11 10 11 11 12 11 10 12 10 4 2 1 1 1 11 19 6 3 2 2 1 2 2 4 5 4 4 4 6 6 4 2 1 2 3 2 3 3 3 4 4 3 4 4 4 3 3 2 3 7 6 3 3 2 2 3 2 1 1 4 4 1 4 4 4 5 6 5 4 3 4 4 3 2 4 3 3 3 2 3 5 3 2
8 9 10 11 10 10 10 10 13 11 8 10 8 2 2 1 0 2 5 12 6 1 2 2 1 2 2 3 5 5 4 5 6 5 3 3 2 3 2 3 3 4 4 5 7 6 5 3 2 2 3 2 3 6 7 5 4 2 2 4 4 3 2 3 5 5 3 2 2 1 1 3 3 3 6 6 5 2 2 3 4 2 2 3 4 3 4
8 10 10 10 10 10 10 11 12 11 8 9 7 2 1 1 1 1 1 5 4 2 1 1 2 1 0 1 4 4 4 4 3 2 1 4 4 4 3 2 4 6 6 7 8 9 7 5 3 2 3 1 2 4 6 6 6 6 7 6 4 4 3 3 5 5 5 5 3 2 2 3 3 4 7 7 5 3 2 4 3 4 4 3 1 5 8
9 9 10 10 9 9 10 11 11 10 9 8 5 2 2 0 1 2 2 3 2 2 2 0 2 1 2 0 3 4 4 3 2 2 2 2 3 4 4 5 5 4 5 6 5 6 7 7 5 3 3 1 2 5 6 7 7 6 6 5 4 5 3 4 8 8 4 4 5 5 7 7 5 5 6 7 6 5 6 5 2 4 5 1 2 7 9
8 9 9 10 10 9 9 10 10 11 9 6 3 2 1 1 1 2 1 1 3 3 3 3 4 3 2 1 3 3 1 1 1 2 2 2 3 4 4 8 6 3 4 6 3 4 6 6 4 2 3 3 2 6 6 6 8 5 4 4 4 6 2 3 8 10 9 7 8 10 12 10 9 9 8 8 9 8 8 5 2 2 3 4 8 10 8
8 8 8 9 10 9 10 10 10 11 9 4 3 2 0 0 1 3 1 1 2 3 3 3 5 5 4 3 3 2 1 3 1 2 3 4 6 4 4 6 7 6 5 6 4 2 3 3 2 1 2 3 2 3 3 4 6 5 5 4 3 5 3 2 7 10 9 8 6 9 13 12 10 11 10 9 11 11 9 7 7 8 7 8 12 12 8
8 8 8 9 10 10 11 11 11 12 8 2 3 2 1 1 1 2 2 1 1 2 2 3 4 3 4 3 3 1 2 4 3 3 4 3 3 5 7 5 7 9 9 8 4 1 5 6 2 2 3 2 2 1 1 1 4 5 4 3 3 4 3 2 4 7 6 5 5 8 12 14 12 11 9 8 9 9 8 6 7 9 9 9 11 10 6
7 7 8 9 10 10 11 11 11 11 8 3 3 2 2 4 5 3 1 1 1 1 2 3 4 1 2 3 2 2 2 2 5 5 5 4 4 4 9 9 7 8 10 10 5 3 6 9 6 5 5 3 2 1 2 3 2 5 3 2 4 4 5 3 3 5 2 1 5 8 10 14 13 10 9 8 7 6 5 4 4 4 8 10 9 6 3
7 7 7 9 10 10 11 11 11 11 8 4 2 2 4 5 5 3 1 1 2 1 1 2 3 2 2 2 0 1 1 1 5 6 6 6 6 5 9 9 7 6 8 6 3 5 6 7 6 5 5 4 3 2 2 4 3 2 2 2 3 4 5 3 2 4 3 3 4 2 4 7 6 5 5 4 4 5 5 5 7 5 4 6 4 3 5
7 7 8 9 10 10 11 11 10 9 7 5 3 3 4 5 3 3 2 1 2 1 1 1 2 2 2 2 2 4 5 5 5 6 3 4 4 3 5 9 7 5 4 1 3 5 6 6 4 5 8 9 8 6 6 7 5 2 4 3 3 4 6 3 1 4 5 5 4 2 3 2 1 3 2 0 4 8 8 6 7 7 5 5 5 6 7
7 7 8 10 10 11 11 10 10 8 6 5 4 3 4 5 4 3 2 2 3 1 2 1 3 3 3 4 5 5 8 8 5 5 6 2 1 2 4 7 7 2 2 1 1 2 4 4 6 7 8 9 9 10 12 11 9 5 4 5 4 5 5 3 2 3 4 2 1 2 1 1 1 2 4 5 8 11 12 9 7 7 8 9 9 8 8
8 8 9 10 11 11 11 10 9 8 6 6 6 4 5 5 3 2 1 2 2 2 2 2 1 4 6 7 7 5 6 6 5 5 7 4 2 3 2 4 5 3 3 5 7 6 5 4 5 6 6 7 7 10 11 11 10 9 7 5 6 6 5 3 3 2 3 2 2 1 2 3 4 3 3 4 5 6 7 8 7 6 5 7 8 8 8
8 9 9 11 11 11 12 11 9 8 6 7 8 7 7 4 0 1 2 1 2 3 2 3 4 5 7 7 5 4 4 5 5 5 3 2 4 3 1 2 3 3 4 6 7 5 4 3 4 4 4 5 5 5 5 6 8 9 9 6 5 6 5 4 3 2 2 3 2 3 3 3 3 2 1 0 1 0 1 3 4 4 3 5 8 9 8
9 9 10 11 12 12 12 11 10 9 7 6 8 9 8 5 3 2 1 0 1 3 3 3 3 1 5 5 4 5 5 5 4 3 3 3 2 2 1 3 3 3 5 6 4 3 3 3 3 3 2 1 1 1 2 3 5 6 7 6 6 6 4 5 4 1 2 4 3 3 2 2 2 2 0 1 1 2 2 3 2 2 3 5 8 8 8
9 10 10 11 12 13 12 11 10 9 7 6 8 10 10 8 7 6 3 1 1 2 2 2 3 2 4 4 2 5 5 2 2 3 4 5 4 2 2 4 4 5 6 5 3 3 4 3 3 3 2 3 3 1 1 2 3 5 6 7 11 9 5 5 6 3 2 4 3 2 2 1 1 2 1 3 2 2 2 3 1 1 2 4 7 8 7
10 10 11 12 13 13 12 11 10 8 7 8 11 13 11 7 7 9 4 0 2 1 4 3 2 3 4 4 3 3 3 2 2 3 2 1 3 3 4 5 6 6 6 5 3 4 4 3 3 3 1 2 2 2 1 2 2 4 7 7 9 8 5 4 5 4 3 3 3 1 1 0 1 1 2 4 3 1 1 0 1 2 3 3 5 6 5
11 11 12 12 13 12 12 11 10 9 9 10 13 14 12 8 8 11 5 0 2 2 6 3 4 4 2 3 3 2 2 2 2 3 2 1 1 2 2 3 4 4 4 4 3 3 4 2 2 3 1 2 1 3 1 2 2 2 3 3 4 4 4 3 4 4 4 4 3 1 1 1 1 2 4 4 2 1 2 1 2 3 4 4 4 4 3
12 12 12 12 12 12 11 11 9 9 11 12 13 13 9 6 11 14 6 0 2 2 6 5 4 4 2 3 3 2 2 2 3 4 3 1 1 1 2 2 1 1 3 4 3 2 3 1 0 3 2 2 1 3 2 2 1 1 1 3 2 2 3 3 2 3 2 3 3 1 1 1 1 3 4 2 0 2 2 2 3 5 5 5 5 5 5
13 13 13 12 12 12 11 10 10 11 13 14 13 11 7 4 12 17 10 1 3 3 5 6 4 2 1 3 4 2 2 3 2 4 4 2 1 2 4 2 1 2 3 3 2 1 2 2 1 1 3 1 0 3 3 2 1 0 1 2 1 1 2 2 1 1 2 3 3 2 2 0 2 2 2 2 1 2 3 5 5 6 6 7 6 5 6
14 14 13 12 12 11 11 10 10 12 15 15 11 8 6 3 5 15 15 6 3 4 3 5 5 3 2 3 3 4 4 3 3 4 4 2 1 3 3 4 3 1 1 2 2 1 2 3 1 1 2 1 1 2 3 2 2 1 1 3 1 0 1 2 2 0 1 2 2 1 1 2 2 1 2 2 2 4 5 6 6 5 6 5 5 6 6
14 14 13 12 11 11 11 11 11 13 17 16 8 4 3 6 5 5 12 11 4 3 1 3 4 4 5 5 5 5 4 3 3 4 5 3 2 2 4 3 2 2 2 3 4 1 1 2 2 2 2 2 2 3 3 3 1 2 2 3 2 1 2 3 3 3 3 3 3 3 3 4 4 5 5 6 6 5 6 7 6 6 5 5 5 6 5
14 13 13 12 11 11 11 11 12 15 16 14 8 3 3 8 9 6 9 7 2 3 4 4 4 4 6 6 5 6 5 4 3 2 5 5 2 1 2 2 2 1 1 3 4 3 3 3 2 2 3 2 2 3 3 3 2 0 3 3 2 3 4 4 4 5 6 6 5 5 6 6 8 7 6 7 7 6 6 8 6 5 5 5 5 6 5
12 12 12 11 11 11 12 12 14 16 13 10 8 6 7 10 8 5 6 2 3 4 5 7 4 2 4 4 5 6 5 5 5 3 4 6 5 2 1 1 2 2 1 1 3 3 3 2 2 3 3 1 2 3 2 3 3 2 2 3 2 1 2 4 4 4 3 4 5 6 7 8 8 8 7 7 7 6 5 6 6 6 6 5 5 5 6
12 12 12 11 11 11 12 13 15 15 11 9 11 11 11 11 8 6 6 4 3 3 3 3 4 5 5 4 5 7 6 5 6 6 7 9 8 6 4 1 3 5 4 2 3 5 4 3 3 3 3 1 2 3 1 1 3 3 2 2 1 1 3 5 5 4 4 5 7 8 8 8 6 6 6 6 6 7 6 7 7 7 7 7 8 7 6
12 12 11 10 10 11 11 13 14 14 11 11 14 16 16 14 10 7 8 6 4 4 4 1 4 9 12 9 7 6 4 3 6 10 12 13 14 13 10 6 7 8 6 3 4 5 4 3 3 4 3 2 3 3 2 2 2 3 3 1 2 2 3 4 5 6 6 7 8 8 8 8 6 6 6 5 6 7 8 8 7 7 6 6 7 7 6
12 11 10 10 9 10 10 12 13 12 11 13 16 17 17 17 13 8 7 6 3 2 3 1 3 7 10 11 11 10 8 8 10 14 16 17 20 21 17 10 7 7 6 5 4 4 4 5 4 3 3 2 3 3 3 2 3 4 3 1 1 4 4 5 7 6 3 4 7 7 6 6 5 5 6 6 6 7 9 8 6 6 6 5 5 5 5
11 10 10 9 8 9 10 10 12 10 8 11 14 16 18 18 16 11 7 6 4 3 3 1 2 3 5 9 14 16 17 17 19 22 22 21 23 22 16 9 6 5 5 5 4 4 5 5 3 2 2 2 3 3 2 2 4 3 2 2 2 4 5 5 6 5 4 7 9 5 3 5 6 5 6 6 6 7 8 7 6 6 6 7 7 5 4
11 10 9 7 7 8 8 9 10 10 6 4 5 9 12 15 16 12 8 7 7 5 3 2 2 3 2 4 10 16 22 26 28 27 24 23 21 18 13 8 6 5 4 5 5 4 4 3 2 1 2 2 3 3 3 3 4 2 2 2 4 4 4 4 6 8 8 8 7 5 6 8 7 6 7 7 7 8 7 6 6 6 8 9 8 6 5
10 9 8 6 6 6 7 8 9 9 7 2 2 5 6 8 12 12 8 7 7 5 4 4 3 2 2 2 6 12 18 25 29 26 22 18 14 11 10 9 5 4 5 5 4 3 2 2 2 2 3 2 4 3 2 2 3 2 3 3 6 6 5 5 6 8 8 7 5 6 7 7 7 6 6 7 9 9 7 6 8 9 9 10 9 7 6
11 9 7 5 4 4 5 7 8 9 6 3 3 4 2 1 6 9 7 8 9 6 4 4 2 2 3 2 4 8 11 16 19 16 13 12 10 10 13 11 5 4 5 4 2 2 2 2 3 3 4 4 5 4 1 3 4 2 3 4 6 7 6 6 6 7 7 7 7 8 7 6 6 6 4 5 9 10 8 8 11 11 10 10 9 8 7
11 8 6 4 2 3 4 6 7 8 7 5 5 5 3 2 6 7 7 9 8 6 4 4 2 2 2 3 5 8 8 10 10 7 7 7 7 9 11 9 4 3 5 5 3 3 1 1 2 3 3 4 4 4 3 4 4 2 2 5 6 6 6 6 6 7 8 8 9 9 7 5 5 5 5 7 10 11 11 11 11 10 9 8 6 6 6
10 7 5 2 0 2 4 6 6 6 7 8 8 7 6 6 8 8 7 8 6 4 4 3 2 1 1 2 4 7 7 6 5 5 5 5 4 4 6 5 3 4 6 4 2 1 1 2 3 3 3 3 4 4 3 4 4 4 5 6 6 6 6 7 7 7 7 7 8 8 7 8 7 7 9 11 11 11 11 12 10 8 6 5 5 6 7
9 6 3 0 2 3 4 5 5 4 5 6 6 5 6 8 9 9 8 6 5 4 4 3 3 1 2 1 2 5 5 4 3 3 3 4 4 3 3 4 4 4 4 3 2 2 2 2 3 3 2 3 3 4 3 2 3 5 6 6 6 6 7 7 6 6 7 6 6 7 9 10 8 7 9 9 8 8 9 9 9 8 5 3 5 6 6
8 4 1 2 3 4 5 5 4 4 4 4 3 3 4 7 8 10 8 5 3 3 2 2 4 2 2 3 1 3 4 4 2 1 2 2 4 3 3 3 4 3 2 2 2 3 3 2 2 2 2 3 3 2 2 4 5 6 7 6 6 7 7 6 6 6 5 5 5 6 8 10 9 7 7 7 7 8 8 7 8 7 5 4 6 5 3
5 3 2 4 4 4 5 5 5 4 3 4 3 3 4 5 6 9 9 7 5 4 2 1 3 3 3 3 1 3 3 3 1 2 2 2 3 3 3 4 4 2 2 3 4 3 2 1 2 2 2 2 2 2 4 7 8 7 8 8 7 7 8 7 7 6 5 5 6 6 7 8 7 5 6 6 7 8 8 6 5 6 5 5 6 5 4
5 3 3 4 3 3 4 4 5 5 6 6 4 2 4 4 4 5 6 6 5 4 3 3 2 2 3 3 2 2 2 2 1 3 3 2 1 2 3 4 3 1 2 4 3 1 2 2 3 3 2 0 1 3 5 8 8 8 8 7 6 6 7 7 7 8 7 7 7 6 6 7 6 5 6 6 6 7 8 7 8 9 7 7 8 6 6
4 4 4 3 3 3 2 3 5 6 6 5 2 2 3 4 3 2 2 3 3 4 3 4 2 1 2 3 0 1 1 2 1 3 2 1 1 2 2 2 2 1 2 2 1 1 3 3 3 3 1 3 1 2 4 6 7 7 7 7 6 6 7 7 8 10 8 6 6 6 6 7 6 6 6 7 6 8 10 12 13 14 13 13 12 9 8
3 4 5 5 3 1 1 3 6 6 4 3 3 2 2 3 3 1 2 2 2 2 2 2 3 2 3 4 0 2 1 3 3 3 1 0 1 1 1 1 1 2 3 1 1 2 4 2 2 3 2 3 1 1 3 4 5 5 6 6 7 9 10 9 9 11 11 8 9 10 10 10 9 6 5 5 6 6 9 12 14 15 16 14 12 10 11
5 4 3 3 2 2 3 3 4 4 3 3 3 2 2 2 1 1 0 2 2 1 0 1 2 2 3 5 2 1 1 2 3 3 2 1 1 2 2 1 1 2 3 0 2 2 4 1 2 2 1 3 3 2 3 4 5 5 5 7 10 13 14 13 12 14 13 11 11 12 13 14 14 12 8 8 7 6 7 10 12 14 14 12 11 11 13
7 4 2 2 6 8 6 4 3 3 2 2 2 2 1 0 1 0 2 2 1 2 1 2 3 1 1 3 4 1 1 0 2 4 3 1 1 3 3 1 0 3 2 2 2 3 4 2 1 1 3 5 4 3 4 5 5 4 5 8 10 13 15 14 12 12 13 12 10 11 14 16 17 16 15 14 13 11 10 10 11 12 12 11 11 11 11
7 4 4 6 8 7 5 4 4 3 2 2 2 1 0 1 1 0 1 1 2 1 0 2 3 3 2 2 3 2 1 0 1 3 3 1 0 3 3 0 1 3 1 3 0 4 4 2 1 3 5 5 4 4 5 6 6 5 6 10 13 14 16 15 12 11 14 16 15 13 15 17 18 18 18 17 16 14 12 11 11 11 10 9 10 10 10
6 4 3 4 4 3 2 2 1 1 1 2 1 0 1 1 0 0 0 1 1 1 1 1 2 2 1 1 2 1 1 1 1 3 3 1 0 2 3 2 1 1 2 1 3 3 2 2 3 5 5 4 4 5 5 6 6 5 6 10 14 16 17 17 15 13 14 18 19 18 18 19 19 18 18 18 16 14 11 11 11 11 10 9 10 10 11
2 2 2 2 2 2 2 1 0 1 1 0 1 2 1 1 1 1 1 1 1 1 1 2 3 3 2 1 2 2 1 1 2 2 1 1 1 2 2 1 1 1 1 1 2 1 2 3 4 5 5 4 4 5 5 5 6 6 5 7 12 15 16 16 16 14 13 15 17 18 18 18 18 17 16 17 16 14 12 11 11 11 10 9 10 10 12
1 1 3 3 2 1 1 0 1 0 1 2 2 3 4 3 3 3 3 2 2 3 2 3 5 5 2 0 1 1 0 1 2 1 1 1 3 2 1 2 1 1 2 1 1 0 2 3 3 4 7 7 6 5 5 5 7 8 7 6 8 12 14 14 14 13 13 15 17 18 18 18 17 16 15 16 17 16 14 13 13 12 10 10 10 11 12
1 0 3 2 1 1 1 1 1 1 1 3 3 4 4 5 5 4 3 1 3 4 4 4 5 5 2 0 0 1 1 2 2 1 1 3 3 0 1 1 2 2 2 1 1 2 4 5 5 7 9 9 7 6 6 6 7 9 9 7 7 10 13 14 14 14 15 16 18 19 19 18 18 17 16 16 17 17 16 15 14 12 11 11 10 10 11
0 0 3 2 1 1 1 1 2 2 3 3 4 4 5 4 3 3 2 2 4 5 4 3 4 4 2 1 2 1 1 2 2 1 1 2 2 1 1 2 1 1 2 3 4 5 5 4 5 7 8 8 7 7 6 6 7 8 8 8 7 9 12 14 14 14 15 17 18 18 17 17 18 18 17 16 17 18 17 16 15 13 11 10 9 9 8
1 1 2 1 1 1 2 2 2 2 2 3 3 3 3 3 2 3 3 1 4 5 5 4 4 3 2 2 2 1 1 2 2 0 0 2 2 1 2 2 1 2 2 4 5 5 4 5 6 8 8 8 8 8 7 7 7 8 8 7 7 9 12 14 14 14 16 17 18 17 16 16 16 17 17 17 17 17 17 16 15 12 10 9 9 8 6
1 1 1 1 1 2 3 2 1 2 4 3 2 2 2 3 3 5 3 2 4 4 4 4 4 3 1 1 2 2 1 1 1 1 2 2 2 1 1 1 2 3 3 3 4 4 4 5 7 8 9 8 8 8 7 7 8 9 10 11 12 13 15 15 14 15 17 18 18 17 16 15 15 16 16 16 15 15 16 15 14 12 10 9 9 8 6
1 1 1 2 1 2 2 1 1 3 5 4 1 3 4 4 4 4 2 4 4 3 3 3 3 2 1 1 3 2 1 1 2 3 1 0 2 2 2 2 4 5 4 4 4 4 4 5 7 8 9 9 8 8 7 8 9 11 14 16 17 17 18 18 17 17 17 17 17 17 17 16 16 16 15 15 15 16 16 14 13 12 10 9 9 8 7
1 1 1 2 3 3 2 1 2 4 5 3 3 4 4 4 4 4 5 5 5 4 3 2 2 3 3 2 1 1 1 0 2 2 1 2 2 3 3 3 5 5 4 4 4 4 5 6 8 9 9 8 8 8 9 11 13 14 16 18 19 19 19 20 20 19 18 18 18 18 18 17 16 16 15 15 15 14 13 12 12 13 12 11 9 8 7
1 1 2 2 2 3 3 2 2 4 4 4 4 4 4 4 5 5 6 6 5 4 3 2 2 4 3 1 2 1 1 1 2 1 2 2 2 3 5 5 5 4 4 4 3 4 5 7 8 10 11 10 10 11 13 15 16 16 17 19 20 20 20 20 20 20 19 19 19 19 18 17 16 15 15 14 13 11 9 10 12 12 12 11 9 7 6
Wind_Direction
317 318 318 317 321 328 331 331 330 331 340 351 351 332 297 242 16 351 170 164 153 74 60 131 271 252 249 275 282 278 277 287 291 298 318 336 350 34 27 23 66 45 55 86 74 79 71 33 64 113 78 51 352 313 328 35 82 81 119 205 70 89 87 83 57 325 318 275 289 9 53 73 73 45 32 50 38 120 140 168 172 118 117 110 78 91 155
321 316 313 317 324 328 329 328 331 337 345 349 348 335 314 316 349 351 183 185 192 20 138 172 258 246 291 299 279 272 266 260 272 287 307 323 30 61 12 1 54 34 40 75 63 72 88 47 39 92 91 37 337 343 356 49 76 63 172 171 111 79 81 94 108 38 351 329 326 7 22 40 67 25 351 9 13 61 123 123 85 96 161 142 118 131 141
325 316 316 324 328 329 328 327 336 346 345 341 343 313 309 342 193 332 210 205 218 247 173 153 150 233 314 313 284 284 269 244 240 252 311 352 70 87 15 353 45 36 39 60 44 41 80 94 36 58 69 6 339 355 1 30 70 74 137 127 108 105 101 107 129 148 170 193 226 214 41 34 56 16 357 10 15 22 135 122 80 102 164 108 107 138 126
323 318 323 330 330 332 331 328 337 347 340 334 337 284 271 56 153 298 191 188 207 247 245 123 137 220 13 329 278 252 243 264 240 199 21 16 47 63 25 2 44 40 47 63 41 31 55 84 86 73 60 19 329 346 2 25 48 59 65 68 86 99 72 63 106 131 176 185 198 200 120 79 61 13 4 9 359 349 81 104 111 159 140 58 31 149 131
324 324 331 333 334 333 331 331 336 341 337 329 326 269 243 118 164 195 145 156 205 259 292 224 176 187 117 183 265 238 240 288 332 39 46 34 45 56 28 16 47 61 73 82 52 25 45 58 67 67 51 64 330 352 19 23 11 32 53 39 66 98 55 31 69 70 66 95 82 64 73 76 77 60 25 16 19 35 66 81 118 146 123 88 193 138 123
327 329 333 332 335 335 331 333 335 339 341 324 287 248 217 220 263 244 196 163 190 218 255 222 212 223 185 226 277 278 298 41 10 331 26 37 36 73 28 4 31 94 114 108 83 29 47 42 37 45 31 44 12 359 16 11 358 22 47 22 74 103 58 27 77 68 49 56 72 80 84 78 66 64 52 35 41 59 74 74 57 95 123 159 145 120 106
331 332 334 332 336 337 333 337 338 339 336 297 249 264 295 83 279 273 310 49 170 196 223 200 202 218 212 236 280 276 36 51 359 323 50 32 8 66 75 5 23 56 76 99 93 61 99 74 13 72 42 47 63 33 16 358 2 34 50 26 74 97 61 60 95 83 55 40 56 84 91 85 63 52 51 51 57 66 72 78 79 77 85 113 115 103 89
336 337 335 330 334 337 337 340 343 344 341 291 240 265 284 325 305 315 7 4 214 218 234 169 173 211 209 228 273 308 55 53 42 16 66 96 1 41 90 70 52 64 68 80 86 161 145 124 117 143 108 70 83 113 193 298 3 25 47 21 28 79 130 171 93 80 58 39 62 85 90 88 71 48 38 45 57 58 53 64 82 83 85 96 101 96 89
341 339 333 330 336 340 340 342 346 351 353 313 258 273 302 294 294 313 6 309 283 243 229 149 139 194 210 210 266 5 26 73 89 42 27 107 115 106 119 104 65 61 64 71 92 155 126 112 122 141 132 136 151 136 173 166 45 16 33 34 18 69 137 170 80 85 100 104 111 108 97 87 71 48 38 40 49 58 46 32 45 88 118 118 109 103 111
346 341 335 335 340 341 341 345 351 356 359 343 305 318 324 310 305 331 84 221 294 252 222 97 116 194 216 189 6 40 290 293 97 76 18 36 71 106 128 112 80 67 66 71 138 175 143 129 141 141 114 98 97 88 112 128 114 87 97 66 32 87 128 146 109 108 142 191 185 140 82 78 59 26 26 41 60 78 65 32 22 37 106 126 119 124 127
349 342 341 341 342 343 344 350 353 357 4 1 337 309 330 342 326 324 69 88 300 245 120 88 118 160 196 142 82 76 79 47 65 106 77 21 37 59 98 99 91 90 90 118 208 182 152 137 119 94 76 66 63 61 62 62 53 91 129 92 51 86 107 112 79 105 148 200 242 346 46 81 18 329 329 79 94 84 75 54 35 40 64 91 92 99 108
347 343 345 343 343 345 347 351 351 352 352 336 315 282 323 355 337 298 70 75 295 311 91 222 189 146 136 115 85 69 82 73 67 112 117 101 67 65 76 88 90 109 172 125 29 97 117 85 57 54 50 52 55 52 52 43 18 12 87 108 104 95 93 83 48 85 134 173 330 49 109 177 108 44 62 96 99 93 87 75 58 63 82 93 96 100 104
349 346 346 344 344 346 346 345 343 344 332 313 306 288 300 333 347 307 21 71 289 306 59 344 329 106 106 95 81 73 86 78 58 85 102 105 89 69 63 100 115 168 169 83 56 63 80 59 52 50 22 15 31 36 37 35 22 15 28 67 109 116 111 100 58 60 112 89 35 116 141 126 115 107 96 100 96 93 88 68 51 60 88 102 107 111 112
353 349 347 344 343 342 342 343 343 342 330 307 299 295 294 299 84 324 343 72 286 289 86 41 5 68 93 89 86 77 51 41 37 46 65 88 95 90 73 99 121 157 139 86 53 55 81 70 57 48 8 5 27 17 6 23 34 30 21 25 88 115 122 111 63 35 110 99 72 96 118 136 150 157 190 117 80 237 113 83 54 49 87 118 122 123 127
355 351 350 344 339 338 339 343 344 341 332 308 289 288 291 277 216 215 305 193 286 325 53 54 325 45 83 69 88 90 55 32 38 20 341 353 56 70 359 21 52 87 95 78 58 59 78 88 95 81 25 50 103 321 328 360 16 24 29 39 66 85 119 135 116 70 102 105 104 123 151 193 171 148 186 339 289 234 153 107 75 41 89 134 138 136 142
355 353 350 342 337 337 339 344 349 345 334 321 308 304 305 287 231 210 242 260 95 15 341 295 251 162 90 45 57 99 92 74 58 29 359 1 10 2 354 4 21 56 71 67 68 73 63 78 122 130 161 185 175 191 358 20 348 343 4 40 57 57 63 99 100 100 118 116 123 151 186 225 137 131 308 333 319 219 132 91 95 74 91 137 150 150 157
357 353 348 341 337 340 347 353 359 358 347 338 326 311 305 290 220 199 205 230 105 21 293 283 93 90 75 43 29 69 87 96 96 90 76 342 326 335 353 358 9 43 72 70 43 52 69 87 104 98 141 219 150 127 131 85 44 331 335 15 43 42 28 56 92 113 114 107 108 120 153 190 11 344 302 323 326 235 138 128 204 136 71 89 141 152 162
359 354 347 342 342 349 358 359 0 1 350 339 324 303 293 282 223 197 191 294 96 31 306 302 89 88 128 136 121 108 101 99 98 94 71 346 322 326 341 5 15 30 63 80 68 63 77 80 101 114 136 289 67 110 138 101 89 311 326 22 39 31 28 59 103 107 88 88 101 97 114 120 11 315 299 310 319 209 176 202 178 117 78 67 97 113 122
357 354 349 347 351 358 3 358 356 357 349 340 328 309 295 264 214 196 186 350 107 75 318 320 78 102 157 123 94 59 61 89 112 107 80 28 287 308 9 34 42 14 42 72 85 94 88 73 191 127 106 340 13 106 105 85 92 300 35 69 57 41 39 39 75 105 103 98 101 108 125 88 3 307 311 342 46 195 188 130 109 104 95 86 86 91 98
355 353 351 354 358 2 2 356 352 352 347 343 331 309 296 257 218 208 204 190 94 79 324 335 39 69 164 107 114 131 84 61 84 117 129 174 231 51 51 25 328 32 45 68 75 71 109 139 253 96 107 123 86 107 106 83 66 69 125 120 112 104 89 62 69 105 99 81 81 131 154 58 322 290 317 6 54 162 136 106 100 100 100 98 91 86 92
354 352 354 359 1 2 1 354 350 350 348 348 336 303 304 340 227 219 219 218 97 74 346 342 10 7 26 71 105 141 138 153 169 148 147 175 36 88 139 202 209 115 102 121 112 100 148 152 181 112 118 105 54 106 130 108 52 15 119 126 114 358 119 140 151 157 98 107 119 133 96 352 332 138 111 64 86 126 126 116 109 104 103 102 97 93 97
351 351 356 1 360 359 359 352 351 356 356 355 345 285 296 26 40 197 212 222 214 99 41 337 357 16 43 53 45 50 76 129 152 138 134 116 44 102 148 156 146 162 177 128 110 134 177 136 141 136 113 85 74 99 113 117 122 318 12 60 45 40 103 111 98 76 77 97 109 97 70 42 50 82 98 95 93 100 111 114 114 113 113 111 110 110 111
350 352 357 1 358 357 358 355 357 3 4 3 359 330 21 42 54 121 174 199 199 69 39 19 29 34 34 42 45 39 41 51 60 99 134 121 80 42 129 123 130 161 144 119 137 158 148 138 150 128 109 106 102 88 66 74 113 23 37 67 96 114 105 90 93 106 92 72 77 92 85 72 70 74 83 92 93 95 107 110 110 109 107 107 113 121 126
351 353 356 1 358 357 359 2 7 11 13 20 28 31 45 52 62 120 149 109 60 69 36 24 36 4 323 343 20 32 30 32 33 44 120 126 123 125 149 169 152 111 86 131 146 130 115 124 121 92 96 112 106 103 91 78 99 114 98 100 103 72 74 78 105 134 116 78 91 101 93 89 89 86 85 88 89 92 100 104 107 109 108 112 122 126 129
353 353 356 360 359 359 5 10 14 18 28 49 57 58 58 49 49 88 101 71 77 115 77 12 352 351 348 347 11 23 17 17 42 73 93 101 110 129 155 155 87 103 132 149 94 80 78 82 85 90 99 91 89 106 114 119 144 151 117 117 152 88 86 92 93 90 84 97 112 106 93 91 93 93 98 100 97 99 96 94 102 109 113 129 139 135 130
353 354 358 1 0 4 12 16 20 28 48 66 64 63 62 53 47 74 89 83 89 89 80 75 326 7 29 33 13 9 21 53 82 94 95 94 100 113 123 105 69 79 98 83 66 80 89 80 77 84 78 63 88 108 89 80 122 112 82 129 176 104 89 107 107 96 87 98 114 113 102 94 87 89 104 110 109 111 107 102 109 116 120 128 131 128 134
354 358 0 1 4 9 14 21 26 37 64 77 68 62 61 55 51 62 67 63 74 67 59 108 288 349 28 33 23 38 86 115 104 91 88 93 100 101 100 94 78 76 74 55 50 69 76 68 67 73 73 68 79 92 92 84 93 87 65 22 67 93 104 120 119 116 119 139 148 148 129 117 121 122 119 120 121 119 115 116 124 129 131 130 116 106 121
358 2 4 2 6 11 16 23 28 37 70 86 73 64 60 51 45 50 54 54 82 130 132 149 281 333 27 24 24 53 88 103 98 89 81 81 87 88 84 83 85 79 68 63 64 60 63 77 91 79 75 91 75 56 45 62 69 61 16 345 66 122 146 151 133 124 142 157 162 162 124 120 138 139 129 131 133 124 124 134 141 141 147 146 134 123 129
2 4 6 5 5 10 16 22 26 31 53 85 64 58 61 49 39 44 61 68 77 103 118 77 3 2 11 343 9 50 79 89 87 82 74 68 69 71 69 71 76 79 84 88 87 78 68 84 111 61 36 103 110 68 28 53 61 23 334 26 73 94 122 137 126 119 127 147 158 147 125 131 144 148 143 146 144 133 130 141 149 153 161 159 152 154 161
4 5 6 3 3 11 19 24 24 23 30 44 21 31 48 38 28 34 54 70 74 83 93 88 67 11 314 310 4 35 62 77 77 72 66 63 58 55 64 71 61 56 73 76 74 86 74 31 19 14 4 45 103 98 57 89 89 360 346 66 87 87 88 96 108 118 131 144 138 120 121 127 130 132 136 144 149 144 139 147 157 163 168 167 167 172 174
2 3 1 358 2 15 23 28 30 26 24 36 47 47 79 32 10 19 49 74 79 86 90 90 89 353 348 4 10 11 36 65 71 64 59 60 53 48 59 65 49 34 66 79 64 70 82 28 18 18 2 25 80 101 91 94 93 19 358 73 95 97 91 84 85 98 112 117 108 97 96 102 106 109 120 154 161 153 147 159 168 171 176 180 184 188 189
356 359 357 354 1 26 38 42 44 41 45 63 76 83 108 62 11 22 62 80 82 93 94 77 67 34 353 330 335 351 19 55 64 51 39 43 43 42 47 51 46 40 69 90 80 38 28 55 60 47 11 19 68 89 69 78 106 148 143 105 100 99 99 98 94 93 99 109 110 103 102 124 147 154 163 175 173 165 162 171 176 179 185 195 208 222 225
353 352 350 344 357 61 61 59 57 57 68 85 90 85 68 40 25 36 65 76 75 89 103 96 89 69 289 276 330 355 16 41 44 32 28 20 21 38 31 22 27 39 41 58 84 33 17 78 71 48 3 12 71 91 71 67 107 143 135 113 108 108 106 104 104 109 120 132 133 133 150 172 179 167 158 163 173 177 175 174 174 177 184 203 238 258 259
350 351 350 218 157 92 76 71 67 71 80 88 90 76 49 35 34 47 71 85 81 66 58 78 99 46 338 359 352 350 13 55 58 44 42 10 5 55 47 2 13 42 34 31 76 74 46 59 72 58 357 353 47 81 85 89 113 121 114 109 112 112 107 108 118 134 147 149 143 149 154 149 135 128 141 157 175 181 176 170 168 169 173 208 242 252 256
350 357 7 183 162 101 82 72 67 72 71 67 70 56 31 26 36 54 71 82 75 59 15 44 97 111 23 53 51 325 2 61 78 69 83 30 8 52 88 38 26 41 31 28 63 56 34 58 99 82 359 357 36 71 145 156 145 128 120 122 125 119 117 131 151 158 156 141 127 129 132 126 121 132 152 168 182 178 172 172 173 171 179 228 248 250 223
1 25 105 151 145 109 85 67 60 56 30 2 351 11 23 27 44 64 73 70 71 100 155 48 75 115 124 112 159 293 356 53 40 346 53 59 22 32 74 71 53 32 11 44 56 33 3 44 89 52 16 56 98 179 179 156 148 148 146 150 155 144 142 156 161 147 130 120 120 125 128 126 130 150 160 171 184 178 170 172 175 175 196 236 247 241 192
36 56 125 154 125 72 59 46 38 22 349 326 316 354 29 42 58 64 63 55 47 61 103 107 122 177 159 143 195 302 16 73 41 8 28 61 41 22 50 69 73 28 14 35 46 24 357 37 72 69 37 47 188 201 178 156 155 160 156 160 167 152 144 147 139 121 106 101 106 116 124 127 134 150 158 168 180 171 167 181 189 187 200 222 227 217 189
48 71 97 100 66 52 44 2 352 348 338 331 338 10 16 31 53 37 13 20 14 7 47 99 151 221 91 95 117 305 78 121 63 37 48 126 74 43 43 61 85 78 44 17 332 70 50 28 51 78 26 297 274 186 183 177 171 164 156 162 170 152 139 139 132 121 112 104 110 120 126 132 145 162 165 165 172 176 182 191 194 194 202 213 216 205 180
47 70 62 54 62 122 253 323 338 344 349 4 30 37 10 23 49 26 324 347 15 356 25 98 163 181 105 99 321 297 75 92 67 47 45 133 112 99 88 72 61 71 74 34 292 62 63 14 13 63 18 310 305 157 190 189 172 163 161 164 163 152 146 147 149 146 148 157 166 162 153 150 156 166 163 153 154 170 183 187 192 199 205 209 206 191 178
41 44 39 39 16 312 309 326 342 359 19 22 23 43 57 35 50 162 251 22 34 339 262 136 170 189 126 118 124 338 30 89 119 137 135 117 146 137 114 107 101 77 76 343 297 74 90 60 26 80 177 255 242 199 189 176 168 173 172 162 159 158 158 161 166 165 159 157 163 165 157 151 151 154 154 147 139 144 168 180 188 195 195 190 185 182 185
21 27 24 323 312 318 329 357 21 27 44 44 22 37 78 26 299 26 80 67 26 262 253 105 102 81 56 110 120 124 344 23 132 127 107 48 43 88 95 149 140 78 87 242 255 84 88 75 44 153 223 235 226 192 169 158 158 167 167 157 153 157 161 163 167 166 155 143 145 157 156 151 150 151 150 148 144 146 156 165 171 175 177 177 178 182 188
334 325 321 311 310 316 337 19 33 33 56 70 39 11 12 229 256 25 94 136 197 236 322 101 133 163 183 135 127 140 177 304 67 86 85 69 111 100 99 53 42 74 160 230 224 65 72 87 170 241 244 236 211 182 163 156 159 164 162 155 150 152 155 154 154 164 164 155 151 156 156 153 154 154 152 148 147 150 156 159 157 156 159 163 171 178 186
325 323 332 323 323 347 17 20 28 56 60 60 73 69 327 327 327 130 266 269 250 101 100 147 143 126 102 85 91 91 74 36 58 78 88 98 321 74 68 44 53 124 198 221 63 71 109 169 199 222 224 207 195 190 171 153 148 143 147 152 150 149 147 142 139 150 160 157 153 156 157 156 156 158 157 155 152 151 155 159 157 154 153 156 165 177 184
355 11 24 10 353 24 47 11 318 101 92 72 130 143 178 244 229 161 181 236 225 160 168 156 119 111 121 114 79 68 42 51 70 76 86 56 33 61 79 108 238 221 187 64 66 109 210 218 216 206 186 175 192 200 179 151 136 127 129 141 141 137 133 131 131 135 140 144 148 152 155 157 160 162 164 164 161 156 154 154 154 153 154 158 167 178 184
49 12 34 34 351 340 98 104 328 34 170 198 180 154 166 191 201 199 206 207 160 129 134 126 111 112 125 306 64 94 132 45 56 65 109 75 50 49 148 191 193 66 80 91 99 165 243 245 217 177 169 177 191 196 183 165 147 137 131 131 133 132 131 131 134 137 138 142 147 150 154 159 163 165 171 175 171 165 162 163 163 164 164 166 173 183 190
143 142 85 88 294 289 108 109 319 302 191 200 196 177 175 183 194 205 213 181 115 125 140 136 115 108 105 344 79 98 71 65 67 53 79 91 86 190 219 156 79 57 69 122 195 217 231 229 203 175 172 177 179 180 180 169 149 138 136 138 144 144 140 139 141 145 146 149 151 154 159 165 166 168 176 181 178 174 175 175 173 172 172 172 176 182 188
174 94 91 101 281 316 86 181 216 213 200 198 196 196 196 193 197 220 232 171 142 142 137 109 96 101 98 91 100 79 23 56 81 49 36 88 107 299 356 60 105 174 159 178 218 236 240 226 196 177 172 168 164 169 172 161 149 145 144 144 148 149 144 142 145 147 148 149 150 153 159 166 167 169 174 178 180 183 185 182 176 174 175 174 170 168 175
141 106 98 127 181 205 211 224 240 247 238 231 222 214 194 159 176 257 267 194 139 136 128 112 102 91 41 37 84 96 16 41 80 104 21 93 102 21 18 37 280 248 185 178 207 227 225 204 185 173 166 162 162 165 163 156 154 152 145 144 152 152 146 146 150 151 149 147 145 147 154 161 164 168 173 176 180 187 189 184 180 181 185 183 174 165 160
101 82 108 160 181 220 221 197 171 263 279 284 274 231 174 155 202 245 246 146 130 139 142 131 120 116 87 13 65 79 40 46 99 84 24 53 100 152 132 143 234 254 235 206 212 223 214 188 165 155 155 160 162 159 154 152 154 153 151 156 162 156 148 147 151 152 150 148 146 146 150 154 159 167 174 177 178 181 181 181 184 190 195 194 190 185 177
81 65 148 166 192 266 274 128 124 284 299 312 274 216 189 177 215 244 207 142 132 109 85 82 86 94 94 61 62 60 316 242 131 110 80 121 172 158 132 169 218 229 230 226 222 210 185 160 147 149 158 163 160 156 153 153 154 155 156 158 158 153 147 147 149 151 152 153 153 152 153 155 156 160 167 171 174 176 178 185 194 198 197 198 200 197 192
352 336 268 194 182 201 215 170 208 262 280 284 248 217 183 169 196 207 171 144 121 91 93 120 113 74 65 65 86 134 222 213 96 111 175 216 175 142 157 215 227 224 224 231 222 191 165 155 152 155 160 161 159 158 158 156 157 157 156 155 154 151 148 147 148 148 149 151 152 152 153 155 155 156 160 166 171 176 184 198 207 206 204 208 212 208 202
156 228 271 265 214 186 182 190 230 244 249 250 239 213 184 183 192 175 143 124 117 125 148 159 99 84 99 170 188 152 120 69 74 123 214 231 193 162 180 209 224 217 209 210 194 168 163 165 163 160 161 163 164 162 158 156 157 157 156 154 153 151 151 153 154 152 152 154 155 156 157 159 162 164 165 165 165 170 186 202 206 205 205 207 207 201 200